Location: Sungai Buloh
(3.1000°N, 113.0000°E)
Time: 17:01:38
(UTC+00:00)

NOAA 12 - Pass Details

Date: 12 January 2026
Orbit: 792 x 813 km, 98.6° (Epoch: 11 February)

Event Time Altitude Azimuth Distance (km) Brightness Sun altitude
Rises 21:18:32 0° 7° (N) 3,277 7.1 -19.3°
Reaches altitude 10° 21:20:51 10° 5° (N) 2,352 6.3 -18.7°
Maximum altitude 21:26:00 68° 283° (WNW) 856 4.0 -17.5°
Drops below altitude 10° 21:31:12 10° 200° (SSW) 2,369 6.6 -16.3°
Sets 21:33:33 0° 198° (SSW) 3,304 7.3 -15.8°
